Hourly Weather Roundup
Issued by NWS Central Illinois

Home | Current Version | Previous Version | Text Only | Print | Product List | Glossary On
Versions: 1 2 3 4 5 6 7 8 9 10 11 12 13 14 15 16 17 18 19 20 21 22 23 24 25 26 27 28 29 30 31 32 33 34 35 36 37 38 39 40 41 42 43 44 45 46 47 48 49 50
000
NZUS43 KILX 210510
HWRILX

Area Weather Roundup
National Weather Service Lincoln IL
1200 AM CDT SAT OCT 21 2017

NOTE:  "FAIR" indicates few or no clouds below 12,000 feet, with
       no sigificant weather and/or obstructions to visibility.


CITY           SKY/WX    TMP DP  RH WIND       PRES   REMARKS
Bloomington    CLOUDY    61  49  64 S13       30.07S
Champaign      MOCLDY    61  49  64 S10       30.11R
Danville       CLOUDY    63  49  60 S12       30.10R
Decatur        CLOUDY    62  47  57 S12       30.08F
Effingham      CLOUDY    60  50  69 E5        30.12S
Flora          PTCLDY    57  51  81 SE6       30.12S
Galesburg      PTCLDY    70  59  66 SE9       30.01S
Jacksonville   CLOUDY    65  50  58 S15       30.03S
Lacon          CLOUDY    66  50  56 S14G20    30.02F
Lawrenceville  PTCLDY    56  50  80 SE6       30.13S
Litchfield     CLOUDY    62  51  66 SE10      30.06F
$$


CITY           SKY/WX    TMP DP  RH WIND       PRES   REMARKS
Lincoln        CLOUDY    63  52  67 S8        30.05F
Macomb         CLOUDY    65  52  63 S13G20    30.02S
Mattoon        CLOUDY    61  51  70 S7        30.10S
Mt Carmel AP   PTCLDY    56  49  77 CALM      30.13F
Olney-Noble AP CLOUDY    58  50  73 CALM      30.13S
Paris AP       PTCLDY    55  49  80 S8        30.13S
Peoria         CLOUDY    63  51  65 S9        30.03F
Pontiac        CLOUDY    62  51  65 S12       30.07R
Rantoul        CLOUDY    58  51  78 S6        30.11S
Robinson       MOCLDY    53  48  83 CALM      30.14S
Springfield    CLOUDY    65  53  65 S10       30.05F
Taylorville    CLOUDY    62  51  65 S12G17    30.07F
$$

...REGIONAL REPORTS...


CITY           SKY/WX    TMP DP  RH WIND       PRES   REMARKS
Chicago O`Hare CLOUDY    67  48  50 S16       30.05S
Kankakee       CLOUDY    61  49  64 S10       30.09S
Moline         CLOUDY    68  49  50 S15G25    29.96S
Mount Sterling PTCLDY    64  51  62 S10       30.00S
Mount Vernon   CLOUDY    60  51  72 S5        30.11F
Pittsfield     CLOUDY    65  52  62 SE14      30.01F
Quincy         PTCLDY    67  50  54 S14       29.98F
Rockford       CLOUDY    61  47  59 S9        30.03S
$$


CITY           SKY/WX    TMP DP  RH WIND       PRES   REMARKS
Burlington     CLOUDY    64  51  62 S12       29.97S
Cedar Rapids   PTCLDY    63  49  60 S13       29.91S
Des Moines     PTCLDY    63  52  67 S13       29.84S
Kirksville     CLEAR     64  56  75 S13       29.95S
Ottumwa        PTCLDY    64  51  62 S15       29.90S
St Louis       CLOUDY    67  52  58 SE7       30.04F
$$


CITY           SKY/WX    TMP DP  RH WIND       PRES   REMARKS
Terre Haute    PTCLDY    56  48  74 SE5       30.14F
Evansville     PTCLDY    59  49  69 S3        30.15S
Indianapolis   PTCLDY    58  48  69 SE6       30.16R
Lafayette      MOCLDY    57  50  77 CALM      30.12F
Madison        CLOUDY    65  45  48 S9        29.98R
Milwaukee      CLOUDY    67  47  48 S13       30.03R
$$





USA.gov is the U.S. government's official web portal to all federal, state and local government web resources and services.